Location: Quedlinburg
(51.7921°N, 11.1414°E)
Time: 08:25:07
(UTC+02:00)

SO-50 - Pass Details

Date: 10 March 2026
Orbit: 567 x 673 km, 64.6° (Epoch: 13 April)

Event Time Altitude Azimuth Distance (km) Brightness Sun altitude
Exits shadow 03:45:53 21° 142° (SE) 1,502 ? -26.9°
Drops below altitude 10° 03:47:24 10° 141° (SE) 2,082 ? -26.7°
Sets 03:49:41 0° 141° (SE) 2,980 ? -26.4°
